Location: Bastelaar
(51.0950°N, 3.8602°E)
Time: 16:53:42
(UTC+00:00)

ATLAS 2AS CENTAUR R/B - Pass Details

Date: 18 November 2025
Orbit: 1047 x 1163 km, 63.7° (Epoch: 09 December)

Event Time Altitude Azimuth Distance (km) Brightness Sun altitude
Rises 17:29:31 0° 310° (NW) 3,865 6.2 -14.9°
Reaches altitude 10° 17:32:21 10° 317° (NW) 2,895 5.4 -15.4°
Maximum altitude 17:38:48 43° 28° (NNE) 1,451 3.1 -16.4°
Enters shadow 17:42:15 25° 83° (E) 1,969 3.5 -16.9°
